Regional Weather Roundup
Issued by NWS

Home | Current Version | Previous Version | Text Only | Print | Product List | Glossary Off
Versions: 1 2 3 4 5 6 7 8 9 10 11 12 13 14 15 16 17 18 19 20 21 22 23 24 25 26 27 28 29 30 31 32 33 34 35 36 37 38 39 40 41 42 43 44 45 46 47 48 49 50

000
ASUS43 KIND 291959
RWRIN

WEATHER ROUNDUP FOR INDIANA
NATIONAL WEATHER SERVICE INDIANAPOLIS IN
400 PM EDT SAT AUG 29 2015

NOTE: "FAIR" INDICATES FEW OR NO CLOUDS BELOW 12,000 FEET WITH NO
SIGNIFICANT WEATHER AND/OR OBSTRUCTIONS TO VISIBILITY.

* - STATION DOES NOT REPORT WEATHER SUCH AS PRECIPITATION OR FOG.

+ - STATION NOT QUALITY CONTROLLED BY THE NATIONAL WEATHER SERVICE.
    USE DATA WITH CAUTION...ESPECIALLY DEWPOINT AND RELATIVE
    HUMIDITY OBSERVATIONS.

INZ001>003-010>013-019-020-292100-
NORTHWEST INDIANA

CITY           SKY/WX    TMP DP  RH WIND       PRES   REMARKS
GARY /AIRPORT/ CLOUDY    75  64  69 SE6       30.02S
KNOX *+        CLOUDY    70  70 100 S3        30.03F
MONTICELLO +   CLOUDY    77  70  79 SE5       30.03F
RENSSELAER +   CLOUDY    72  70  94 SE5       30.03F

$$

LMZ046-743>745-292100-
SOUTHERN LAKE MICHIGAN

STATION/POSITION TIME  TEMP    WIND        PRES    WAVE
                       AIR SEA DIR/SP/G            HT
                 (UTC) (F)     (DEG/KT/KT) (MB)    (FT)
BURNS HARBOR     1900   73     180/  8/ 14 1016.9F
MICHIGAN CITY    1900   71     160/ 11/ 13   N/A
5NW MICH CITY    1900   71 71  190/ 10/ 14   N/A     1

$$

INZ004-005-014>016-021>024-292100-
NORTH CENTRAL INDIANA

CITY           SKY/WX    TMP DP  RH WIND       PRES   REMARKS
ELKHART        CLOUDY    68  68 100 SW5       30.06S
GOSHEN         LGT RAIN  70  67  90 S9        30.05F FOG
PERU/GRISSOM   DRIZZLE   77  68  73 SW6       30.05F
SOUTH BEND     CLOUDY    70  66  87 S6        30.05S

$$

INZ006>009-017-018-025>027-292100-
NORTHEAST INDIANA

CITY           SKY/WX    TMP DP  RH WIND       PRES   REMARKS
ANGOLA *+      PTSUNNY   70  61  73 S5        30.06F
FORT WAYNE     CLOUDY    77  69  76 CALM      30.07F

$$

INZ028-029-035-036-043>045-051>053-292100-
WEST CENTRAL INDIANA

CITY           SKY/WX    TMP DP  RH WIND       PRES   REMARKS
CRAWFORDSVL +  CLOUDY    77  64  65 S8        30.06F
GREENCASTLE +  CLOUDY    79  66  65 S7        30.07F
LAFAYETTE      CLOUDY    77  67  71 S3        30.03F
TERRE HAUTE    CLOUDY    83  68  60 S13       30.05F

$$

INZ030>032-037>040-046>048-054>057-064-065-292100-
CENTRAL INDIANA

CITY           SKY/WX    TMP DP  RH WIND       PRES   REMARKS
ANDERSON       SUNNY     81  63  54 SW9       30.09F
FRANKFORT +    CLOUDY    79  69  71 S7        30.08S
GREENWOOD *+   CLOUDY    79  64  61 W6        30.08F
INDIANAPOLIS   CLOUDY    80  68  66 SW8       30.06F
-EAGLE CREEK   CLOUDY    80  67  64 VRB7      30.06F
KOKOMO *+      CLOUDY    79  68  69 SW3       30.06F
MT COMFORT *+  CLOUDY    81  61  50 S8        30.07F
SHELBYVILLE    CLOUDY    85  68  56 SW8       30.06F

$$

INZ033-034-041-042-049-050-058-059-292100-
EAST CENTRAL INDIANA

CITY           SKY/WX    TMP DP  RH WIND       PRES   REMARKS
MUNCIE         CLOUDY    78  66  66 SW7       30.07F

$$

INZ060-061-067>069-081>083-085>088-292100-
SOUTHWEST INDIANA

CITY           SKY/WX    TMP DP  RH WIND       PRES   REMARKS
EVANSVILLE     PTSUNNY   83  70  64 W10G21    30.04F
HUNTINGBURG *+ PTSUNNY   86  64  48 SW7       30.05F

$$

INZ062-063-066-070>080-084-089>092-292100-
SOUTH CENTRAL AND SOUTHEAST INDIANA

CITY           SKY/WX    TMP DP  RH WIND       PRES   REMARKS
BLOOMINGTON    CLOUDY    81  69  67 SW6       30.07F
MADISON *+     PTSUNNY   84  64  51 SW8       30.09F
SEYMOUR +      PTSUNNY   88  64  45 SW7       30.05F

$$



USA.gov is the U.S. government's official web portal to all federal, state and local government web resources and services.